Mount Holly, NJ

8:57 AM EST on December 08, 2019 (GMT -0500)
South Jersey Regional

Weather History for KVAY - September, 2019

Change the Weather History Date:

Thursday, September 12, 2019

  Actual Average (KPNE) Record (KPNE)
Temperature  
Mean Temperature 77 °F -  
Max Temperature 89 °F 76 °F 91 °F (2005)
Min Temperature 64 °F 58 °F 51 °F (2006)
Cooling Degree Days 12    
Growing Degree Days 27 (Base 50)    
Moisture  
Dew Point 68 °F    
Average Humidity 82    
Maximum Humidity 96    
Minimum Humidity 53    
Precipitation  
Precipitation 0.15 in - - ()
Sea Level Pressure  
Sea Level Pressure 30.09 in    
Wind  
Wind Speed 5 mph (NNE)    
Max Wind Speed 31 mph    
Max Gust Speed 39 mph    
Visibility 8 miles    
Events Rain    
Averages and records for this station are not official NWS values.
T = Trace of Precipitation, MM = Missing Value Source: NWS Daily Summary

Daily Weather History Graph

Daily Weather History Graph

Search for Another Location

Airport or City:

Astronomy

Sep. 12, 2019 Rise Set
Actual Time 6:37 AM EDT 7:13 PM EDT
Civil Twilight 6:10 AM EDT 7:40 PM EDT
Nautical Twilight 5:37 AM EDT 8:12 PM EDT
Astronomical Twilight 5:04 AM EDT 8:45 PM EDT
Moon 6:56 PM EDT (9/12) 4:54 AM EDT (9/12)
Length of Visible Light 13h 30m
Length of Day
12h 36m
Waxing Gibbous, 98% of the Moon is Illuminated
Sep 12
Waxing Gibbous
Sep 14
Full
Sep 21
Last Quarter
Sep 28
New
Oct 5
First Quarter

Hourly Weather History & Observations

Time (EDT) Temp. Heat Index Dew Point Humidity Pressure Visibility Wind Dir Wind Speed Gust Speed Precip Events Conditions
12:54 AM 75.9 °F - 71.1 °F 85% 30.04 in 10.0 mi SW 3.5 mph - N/A   Partly Cloudy
1:54 AM 75.0 °F - 71.1 °F 87% 30.02 in 10.0 mi SW 3.5 mph - N/A   Clear
2:54 AM 73.9 °F - 71.1 °F 91% 30.00 in 10.0 mi Calm Calm - N/A   Clear
3:54 AM 75.0 °F - 71.1 °F 87% 30.01 in 10.0 mi WSW 6.9 mph - N/A   Mostly Cloudy
4:54 AM 75.9 °F - 71.1 °F 85% 30.01 in 10.0 mi Calm Calm - N/A   Partly Cloudy
5:54 AM 73.9 °F - 71.1 °F 91% 30.01 in 9.0 mi Calm Calm - N/A   Unknown
6:54 AM 73.0 °F - 70.0 °F 90% 30.03 in 6.0 mi Calm Calm - N/A   Scattered Clouds
7:54 AM 75.9 °F - 72.0 °F 87% 30.04 in 10.0 mi Calm Calm - N/A   Clear
8:54 AM 79.0 °F - 69.1 °F 72% 30.05 in 10.0 mi WNW 6.9 mph - N/A   Clear
9:54 AM 81.0 °F 84.1 °F 69.1 °F 67% 30.06 in 10.0 mi NNW 8.1 mph - N/A   Clear
10:54 AM 82.9 °F 86.5 °F 69.1 °F 63% 30.06 in 10.0 mi NNW 6.9 mph - N/A   Clear
11:54 AM 84.9 °F 88.2 °F 68.0 °F 57% 30.05 in 10.0 mi NW 9.2 mph - N/A   Clear
12:54 PM 86.0 °F 90.1 °F 69.1 °F 57% 30.03 in 10.0 mi North 4.6 mph - N/A   Clear
1:54 PM 88.0 °F 92.9 °F 70.0 °F 55% 30.03 in 10.0 mi NNW 9.2 mph - N/A   Mostly Cloudy
2:54 PM 88.0 °F 92.1 °F 69.1 °F 53% 30.03 in 10.0 mi North 8.1 mph - N/A   Clear
3:54 PM 87.1 °F 92.0 °F 70.0 °F 57% 30.02 in 10.0 mi NE 5.8 mph - N/A   Mostly Cloudy
4:54 PM 79.0 °F - 66.9 °F 66% 30.04 in 10.0 mi North 10.4 mph 19.6 mph N/A   Overcast
4:59 PM 77.0 °F - 68.0 °F 74% 30.06 in 1.2 mi North 31.1 mph 39.1 mph N/A   Haze
5:01 PM 75.0 °F - 68.0 °F 79% 30.07 in 0.5 mi NNE 26.5 mph 39.1 mph 0.03 in Rain Light Rain
5:28 PM 71.1 °F - 70.0 °F 96% 30.09 in 0.8 mi East 3.5 mph - 0.09 in Rain Heavy Rain
5:31 PM 71.1 °F - 70.0 °F 96% 30.09 in 1.2 mi ENE 4.6 mph - 0.09 in Rain Rain
5:41 PM 71.1 °F - 70.0 °F 96% 30.09 in 3.0 mi Calm Calm - 0.10 in Rain Light Rain
5:54 PM 72.0 °F - 70.0 °F 93% 30.10 in 5.0 mi Calm Calm - 0.12 in Rain Light Rain
6:03 PM 72.0 °F - 70.0 °F 93% 30.10 in 5.0 mi Variable 3.5 mph - 0.00 in   Overcast
6:47 PM 71.1 °F - 69.1 °F 93% 30.13 in 10.0 mi East 9.2 mph - 0.02 in   Overcast
6:54 PM 71.1 °F - 69.1 °F 93% 30.13 in 10.0 mi ESE 8.1 mph - 0.02 in   Overcast
7:08 PM 71.1 °F - 68.0 °F 90% 30.14 in 10.0 mi Variable 5.8 mph - 0.01 in   Overcast
7:54 PM 69.1 °F - 66.0 °F 90% 30.16 in 9.0 mi East 8.1 mph - 0.01 in   Overcast
8:54 PM 68.0 °F - 64.9 °F 90% 30.19 in 10.0 mi Variable 6.9 mph - N/A   Overcast
9:43 PM 66.9 °F - 64.9 °F 93% 30.22 in 7.0 mi ENE 8.1 mph - N/A   Overcast
9:54 PM 66.9 °F - 64.0 °F 90% 30.23 in 10.0 mi East 6.9 mph - N/A   Overcast
10:54 PM 66.0 °F - 63.0 °F 90% 30.23 in 10.0 mi Variable 6.9 mph - N/A   Overcast
11:22 PM 66.0 °F - 63.0 °F 90% 30.24 in 10.0 mi East 6.9 mph - N/A   Overcast
11:33 PM 66.0 °F - 62.1 °F 87% 30.24 in 10.0 mi East 9.2 mph - N/A   Overcast
11:54 PM 64.9 °F - 62.1 °F 90% 30.25 in 10.0 mi Variable 6.9 mph - N/A   Overcast